Regional Weather Roundup
Issued by NWS

Home | Current Version | Previous Version | Text Only | Print | Product List | Glossary On
Versions: 1 2 3 4 5 6 7 8 9 10 11 12 13 14 15 16 17 18 19 20 21 22 23 24 25 26 27 28 29 30 31 32 33 34 35 36 37 38 39 40 41 42 43 44 45 46 47 48 49 50
544
ASUS45 KBOU 221510
RWRCO

WEATHER ROUNDUP FOR COLORADO
NATIONAL WEATHER SERVICE PUEBLO CO
800 AM MST THU FEB 22 2018

NOTE: "FAIR" INDICATES FEW OR NO CLOUDS BELOW 12000 FEET WITH NO
SIGNIFICANT WEATHER AND/OR OBSTRUCTIONS TO VISIBILITY.

COZ001>005-013-030-031-221600-
...NORTHWEST COLORADO...

CITY           SKY/WX    TMP DP  RH WIND       PRES   REMARKS
CRAIG          LGT SNOW  13   8  81 E3        29.98R
HAYDEN         FLURRIES  11   6  81 E10       29.96R WCI  -3
MEEKER         CLOUDY    17  13  84 CALM      29.95R
RABBIT EARS PA NOT AVBL
STEAMBOAT SPGS FAIR       6   4  89 CALM      29.94S
WALDEN         CLOUDY     5   0  78 SE3       29.91R
$$

COZ006>008-011-221600-
...WEST CENTRAL VALLEYS...

CITY           SKY/WX    TMP DP  RH WIND       PRES   REMARKS
GRAND JUNCTION CLOUDY    26  26 100 E6        30.00R WCI  19
MONTROSE       LGT SNOW  23  23 100 W5        30.00R VSB 1   WCI  17
EAGLE          LGT SNOW  20  17  88 CALM      29.98R FOG
RIFLE          LGT SNOW  24  21  88 E3        29.99R FOG
DELTA          NOT AVBL
NUCLA          LGT SNOW  27  23  86 CALM      30.01R
$$

COZ017>023-064>068-221600-
...SOUTHWEST COLORADO...

CITY           SKY/WX    TMP DP  RH WIND       PRES   REMARKS
DURANGO        PTSUNNY   24  24 100 SW6       29.98R WCI  17
CORTEZ         PTSUNNY   24  23  96 NE3       29.99R
PAGOSA SPRINGS LGT SNOW  25  24  96 SW6       29.95R VSB 3/4 WCI  18
TELLURIDE      FLURRIES  20  12  72 E6        29.90R WCI  12
WOLF CREEK PAS CLOUDY     9   7  92 MISG      29.87R
$$

COZ009-010-012-014-032>034-037-058>063-221600-
...CENTRAL COLORADO...

CITY           SKY/WX    TMP DP  RH WIND       PRES   REMARKS
ASPEN          LGT SNOW  17  13  84 CALM      29.89R FOG
BUENA VISTA    CLOUDY    19  16  86 CALM      29.89S FOG
COPPER MTN     LGT SNOW  14   9  79 CALM      29.80S
BERTHOUD PASS  LGT SNOW   3  -8  60 NW10G20   29.79R WCI -12
COTTONWOOD PAS LGT SNOW  23  19  86 CALM      29.85R
GUNNISON       LGT SNOW  19  17  92 SE3       29.92R FOG
KREMMLING      PTSUNNY   14   9  79 CALM      29.96S
LEADVILLE      CLOUDY    13  10  88 CALM      29.82S
MONARCH PASS   LGT SNOW   9   5  85 W17G23    29.92R VSB 1   WCI -10
SALIDA         CLOUDY    19  16  90 CALM      29.98S
SUNLIGHT       LGT SNOW  10   5  79 SW6       29.88R WCI   1
WILKERSON PASS LGT SNOW  14  12  92 SW3       29.85R
$$

COZ069>075-221600-
...SAN LUIS VALLEY/SANGRE DE CRISTO MOUNTAINS...

CITY           SKY/WX    TMP DP  RH WIND       PRES   REMARKS
ALAMOSA        CLOUDY    24  21  88 S13       29.91R WCI  12
DEL NORTE      FAIR      21  19  93 CALM      29.89R
LA VETA PASS   LGT SNOW  19  14  79 S16G32    29.98S WCI   5
SAGUACHE       NOT AVBL
$$

COZ035-036-038>040-221600-
...NORTHERN COLORADO FRONT RANGE...

CITY           SKY/WX    TMP DP  RH WIND       PRES   REMARKS
DENVER INTL AP CLOUDY    15   9  76 NW5       29.98S WCI   8
DMNS CITY PARK NOT AVBL
AURORA         PTSUNNY   14  10  86 N3        29.97S
FRONT RANGE AP CLOUDY    18  12  79 CALM      29.99R
ERIE MUNI ARPT FAIR      11   8  88 CALM      30.07S
BOULDER MUN AP CLOUDY    18  12  79 CALM      29.99F
CENTENNIAL     PTSUNNY   15  11  83 CALM      29.95S
BROOMFIELD     PTSUNNY   12   9  85 CALM      29.98S
LOVELAND       CLOUDY    11   9  92 N7        30.02F WCI   0
LONGMONT       CLOUDY    15  11  83 CALM      30.04S
$$

COZ041-046-047-076>085-087-088-221600-
...PIKES PEAK/PALMER DIVIDE AND SOUTHERN FOOTHILLS...

CITY           SKY/WX    TMP DP  RH WIND       PRES   REMARKS
COLO. SPRINGS  LGT SNOW  14  12  92 SE12      29.97S FOG     WCI   0
A. F. ACADEMY  CLOUDY    12  10  92 SW3       29.94R
SCHRIEVER AFB  NOT AVBL
CHEYENNE MTN   NOT AVBL
ELLICOTT       LGT SNOW N/A N/A N/A S3        29.96S
FALCON         FLURRIES  14  12  92 S5        29.93R WCI   6
FORT CARSON    FLURRIES  15  12  87 S9        29.98R WCI   4
LIMON          CLOUDY    13   6  74 S12       30.03R WCI  -1
MONUMENT HILL  CLOUDY    14  10  85 CALM      29.91S
CANON CITY     LGT SNOW  19  16  86 E7        30.01R WCI  10
WALSENBURG     PTSUNNY   19  16  86 CALM      29.96F
TRINIDAD       FAIR      16  13  88 NE6       29.98F WCI   7
$$

COZ042>045-048>051-090-091-221600-
...NORTHEAST COLORADO...

CITY           SKY/WX    TMP DP  RH WIND       PRES   REMARKS
GREELEY ARPT   FAIR       8   5  87 NW6       30.05S WCI  -2
AKRON          CLOUDY    15   7  70 SE16      30.06S WCI  -1
BURLINGTON     FAIR      14   6  70 SE10      30.11F WCI   1
WRAY           CLOUDY    21  10  63 S13       30.15F WCI   9
YUMA           NOT AVBL
STERLING       CLOUDY    19  10  68 S10       30.09F WCI   8
HOLYOKE        FAIR      23  12  63 S10       30.16R WCI  12
FORT MORGAN    PTSUNNY   18  13  80 E9        30.06R WCI   6
$$

COZ086-089-092>099-221600-
...SOUTHEAST COLORADO...

CITY           SKY/WX    TMP DP  RH WIND       PRES   REMARKS
PUEBLO         CLOUDY    20  15  81 SE3       30.04S HAZE
LA JUNTA       FAIR      17  11  77 CALM      30.08S
LAMAR          CLOUDY    20   7  57 SE10      30.11S WCI   9
SPRINGFIELD      N/A     21   7  54 S20       30.05F WCI   6
$$





USA.gov is the U.S. government's official web portal to all federal, state and local government web resources and services.